San Luis Obispo, CA

5:24 PM PST on February 05, 2016 (GMT -0800)
San Luis Obispo County-McChesney

Weather History for KSBP - May, 2013

Change the Weather History Date:

Thursday, May 9, 2013

  Actual Average Record
Temperature  
Mean Temperature 61 °F -  
Max Temperature 69 °F 70 °F 95 °F (1984)
Min Temperature 54 °F 47 °F 37 °F (1999)
Degree Days  
Heating Degree Days 4    
Growing Degree Days 11 (Base 50)    
Moisture  
Dew Point 51 °F    
Average Humidity 78    
Maximum Humidity 90    
Minimum Humidity 56    
Precipitation  
Precipitation 0.00 in - - ()
Sea Level Pressure  
Sea Level Pressure 30.11 in    
Wind  
Wind Speed 9 mph (NW)    
Max Wind Speed 24 mph    
Max Gust Speed 31 mph    
Visibility 10 miles    
Events      
Averages and records for this station are not official NWS values.
T = Trace of Precipitation, MM = Missing Value Source: NWS Daily Summary

Daily Weather History Graph

Daily Weather History Graph

Search for Another Location

Airport or City:

Trip Planner

Search our weather history database for the weather conditions in past years. The results will help you decide how hot, cold, wet, or windy it might be!

Date:

Astronomy

May. 09, 2013 Rise Set
Actual Time 6:03 AM PDT 7:55 PM PDT
Civil Twilight 5:35 AM PDT 8:23 PM PDT
Nautical Twilight 5:01 AM PDT 8:56 PM PDT
Astronomical Twilight 4:26 AM PDT 9:32 PM PDT
Moon 5:50 AM PDT (5/9) 7:55 PM PDT (5/9)
Length of Visible Light 14h 47m
Length of Day
13h 52m
Waning Crescent, 0% of the Moon is Illuminated
May 9
Waning Crescent
May 9
New
May 17
First Quarter
May 24
Full
May 31
Last Quarter

Hourly Weather History & Observations

Time (PDT) Temp. Dew Point Humidity Pressure Visibility Wind Dir Wind Speed Gust Speed Precip Events Conditions
12:56 AM 55.9 °F 51.1 °F 84% 30.13 in 10.0 mi WNW 5.8 mph - N/A   Overcast
1:30 AM 55.4 °F 51.8 °F 88% 30.14 in 10.0 mi NW 8.1 mph - N/A   Overcast
1:56 AM 55.0 °F 52.0 °F 89% 30.13 in 10.0 mi Variable 6.9 mph - N/A   Overcast
2:56 AM 55.0 °F 51.1 °F 86% 30.13 in 10.0 mi NW 3.5 mph - N/A   Overcast
3:56 AM 54.0 °F 51.1 °F 90% 30.11 in 10.0 mi NW 5.8 mph - N/A   Overcast
4:56 AM 54.0 °F 51.1 °F 90% 30.10 in 10.0 mi NNW 3.5 mph - N/A   Overcast
5:56 AM 54.0 °F 51.1 °F 90% 30.10 in 10.0 mi NW 5.8 mph - N/A   Overcast
6:56 AM 55.0 °F 51.1 °F 86% 30.12 in 10.0 mi NW 6.9 mph - N/A   Overcast
7:56 AM 55.9 °F 51.1 °F 84% 30.13 in 10.0 mi NNW 5.8 mph - N/A   Overcast
8:56 AM 60.1 °F 51.1 °F 72% 30.14 in 10.0 mi NW 6.9 mph - N/A   Scattered Clouds
9:56 AM 62.1 °F 51.1 °F 67% 30.14 in 10.0 mi NNW 11.5 mph - N/A   Clear
10:56 AM 64.9 °F 51.1 °F 61% 30.12 in 10.0 mi WNW 12.7 mph - N/A   Clear
11:56 AM 66.9 °F 52.0 °F 59% 30.11 in 10.0 mi NW 13.8 mph - N/A   Clear
12:56 PM 66.0 °F 52.0 °F 60% 30.11 in 10.0 mi NW 16.1 mph 23.0 mph N/A   Clear
1:56 PM 68.0 °F 52.0 °F 56% 30.09 in 10.0 mi NW 18.4 mph - N/A   Clear
2:56 PM 68.0 °F 52.0 °F 56% 30.09 in 10.0 mi NW 24.2 mph - N/A   Clear
3:56 PM 62.1 °F 51.1 °F 67% 30.09 in 10.0 mi NW 20.7 mph 26.5 mph N/A   Clear
4:56 PM 60.1 °F 51.1 °F 72% 30.08 in 10.0 mi NW 17.3 mph 31.1 mph N/A   Mostly Cloudy
5:56 PM 60.1 °F 51.1 °F 72% 30.07 in 10.0 mi NW 19.6 mph 29.9 mph N/A   Mostly Cloudy
6:56 PM 57.0 °F 50.0 °F 77% 30.08 in 10.0 mi WNW 16.1 mph - N/A   Mostly Cloudy
7:56 PM 55.0 °F 51.1 °F 86% 30.09 in 10.0 mi NW 12.7 mph - N/A   Clear
8:56 PM 54.0 °F 51.1 °F 90% 30.12 in 10.0 mi NW 10.4 mph 24.2 mph N/A   Partly Cloudy
9:56 PM 54.0 °F 51.1 °F 90% 30.13 in 10.0 mi NW 8.1 mph - N/A   Mostly Cloudy
10:56 PM 55.0 °F 51.1 °F 86% 30.14 in 10.0 mi NNW 10.4 mph - N/A   Overcast
11:56 PM 54.0 °F 51.1 °F 90% 30.14 in 10.0 mi WNW 15.0 mph 21.9 mph N/A   Overcast